DW5310 Weather Reports


Display with metric or nautical units.
time (UTC)temp
F
wind
direction
speed
MPH
gust
MPH
rain 1hr
in
rain 24hr
in
rain mn
in
humidity
%
barometer
mb
20260904054005 55 148 0.0 0.0 0.00 0.23 0.23 92 1009.5
20260904053505 55 148 0.0 0.0 0.00 0.23 0.23 92 1009.5
20260904053005 55 96 0.0 0.0 0.00 0.23 0.23 91 1009.5
20260904052504 55 129 0.0 0.0 0.00 0.23 0.23 92 1009.5
20260904052005 55 165 0.0 0.0 0.00 0.23 0.23 92 1009.5
20260904051505 55 144 0.0 0.0 0.00 0.23 0.23 91 1009.5
20260904051005 55 164 0.0 0.0 0.00 0.23 0.23 91 1009.5
20260904050505 55 148 0.0 2.0 0.00 0.23 0.23 92 1009.5
20260904050005 55 125 0.0 3.0 0.00 0.23 0.23 92 1009.5
20260904045505 55 139 0.0 3.0 0.00 0.23 0.23 92 1009.5
20260904045005 55 170 0.0 3.0 0.00 0.23 0.23 92 1009.5
20260904044505 55 192 0.0 0.0 0.00 0.23 0.23 92 1009.5
20260904044005 55 192 0.0 0.0 0.00 0.23 0.23 92 1009.5
20260904043504 55 192 0.0 2.0 0.00 0.23 0.23 92 1009.5
20260904043005 55 192 0.0 2.0 0.00 0.23 0.23 93 1009.5
20260904042005 55 282 0.0 3.0 0.00 0.23 0.23 93 1009.5
20260904041005 55 282 0.0 0.0 0.00 0.23 0.23 93 1009.5
20260904040505 55 282 0.0 2.0 0.00 0.23 0.23 93 1009.5
20260904040004 55 282 0.0 2.0 0.00 0.23 0.23 93 1009.5
20260904035505 55 35 0.0 2.0 0.00 0.23 0.23 93 1009.5
20260904035005 55 102 0.0 2.0 0.00 0.23 0.23 93 1009.5
20260904034504 55 103 0.0 0.0 0.00 0.23 0.23 93 1009.5
20260904033505 55 131 0.0 0.0 0.00 0.23 0.23 93 1008.5
20260904033004 55 80 0.0 0.0 0.00 0.23 0.23 93 1008.5
20260904032505 55 80 0.0 0.0 0.00 0.23 0.23 93 1008.5
20260904032006 55 80 0.0 0.0 0.00 0.23 0.23 93 1008.5
20260904031504 55 80 0.0 0.0 0.00 0.23 0.23 93 1008.5
20260904031005 55 80 0.0 0.0 0.00 0.23 0.23 92 1008.5
20260904030504 55 80 0.0 0.0 0.00 0.23 0.23 92 1008.5
20260904030005 55 80 0.0 0.0 0.00 0.23 0.23 92 1008.5
20260904025505 55 80 0.0 0.0 0.00 0.23 0.23 92 1008.5
20260904025004 55 80 0.0 0.0 0.00 0.23 0.23 92 1008.5
20260904024505 55 80 0.0 2.0 0.00 0.23 0.23 92 1008.5
20260904024004 55 80 1.0 3.0 0.00 0.23 0.23 92 1008.5
20260904023505 55 95 1.0 6.0 0.00 0.23 0.23 92 1008.5
20260904022007 56 121 2.0 6.0 0.00 0.23 0.23 92 1008.5
20260904021505 56 119 1.0 2.0 0.00 0.23 0.23 92 1008.5
20260904021005 56 125 1.0 6.0 0.00 0.23 0.23 92 1008.5
20260904020004 56 128 1.0 6.0 0.00 0.23 0.23 92 1008.5
20260904015504 56 38 0.0 0.0 0.00 0.23 0.23 92 1008.5
20260904015005 56 43 0.0 0.0 0.00 0.23 0.23 92 1008.5
20260904014504 56 102 0.0 0.0 0.00 0.23 0.23 92 1008.5
20260904014004 56 98 0.0 5.0 0.00 0.23 0.23 92 1008.5
20260904013504 56 102 2.0 5.0 0.00 0.23 0.23 92 1008.5
20260904013005 56 118 2.0 6.0 0.00 0.23 0.23 92 1008.5
20260904012505 56 134 4.0 10.0 0.00 0.23 0.23 92 1008.5
20260904012005 56 125 3.0 10.0 0.00 0.23 0.23 92 1008.5
20260904011504 56 157 3.0 8.0 0.00 0.23 0.23 92 1008.5
20260904011005 56 81 1.0 6.0 0.00 0.23 0.23 92 1008.5
20260904010504 56 124 3.0 6.0 0.00 0.23 0.23 91 1008.5
20260904010004 56 282 0.0 0.0 0.00 0.23 0.23 91 1008.5
20260904005504 56 35 0.0 2.0 0.00 0.23 0.23 91 1008.5
20260904005004 56 192 0.0 2.0 0.00 0.23 0.23 91 1008.5
20260904004504 56 179 0.0 2.0 0.00 0.23 0.23 91 1008.5
20260904004004 56 90 0.0 2.0 0.00 0.23 0.23 91 1008.5
20260904003504 56 208 0.0 3.0 0.00 0.23 0.23 91 1008.5
20260904002504 57 90 2.0 6.0 0.00 0.23 0.23 92 1008.5
20260904002004 57 149 1.0 6.0 0.00 0.23 0.23 92 1008.5
20260904001504 56 193 1.0 6.0 0.05 0.23 0.23 92 1008.5
20260904001004 56 224 0.0 3.0 0.05 0.23 0.23 91 1008.5
20260904000504 56 260 2.0 3.0 0.05 0.23 0.23 91 1008.5
20260904000004 56 238 0.0 2.0 0.05 0.23 0.23 91 1008.5
20260903235504 56 248 1.0 5.0 0.05 0.23 0.23 90 1008.5
20260903234504 55 190 1.0 5.0 0.05 0.29 0.23 90 1008.5
20260903234004 55 260 1.0 3.0 0.05 0.34 0.23 88 1008.5
20260903233504 55 162 0.0 6.0 0.05 0.34 0.23 88 1008.5
20260903233003 55 140 1.0 6.0 0.05 0.34 0.23 88 1008.5
20260903232004 56 274 3.0 6.0 0.05 0.38 0.23 85 1009.5
20260903231504 56 249 2.0 6.0 0.00 0.34 0.19 84 1009.5
20260903230504 57 260 0.0 8.0 0.00 0.34 0.19 83 1009.5
20260903230004 57 233 2.0 8.0 0.00 0.34 0.19 81 1009.5
20260903225504 58 229 1.0 8.0 0.00 0.34 0.19 80 1008.5
20260903225004 59 282 1.0 8.0 0.00 0.34 0.19 78 1008.5
20260903224504 60 260 3.0 7.0 0.00 0.34 0.19 77 1008.5
20260903224004 61 282 0.0 7.0 0.00 0.34 0.19 77 1008.5
20260903223504 61 280 2.0 7.0 0.00 0.34 0.19 77 1008.5
20260903222504 61 258 2.0 6.0 0.00 0.34 0.19 76 1008.5
20260903222003 61 231 1.0 6.0 0.00 0.34 0.19 76 1008.5
20260903221503 61 257 2.0 6.0 0.00 0.34 0.19 75 1008.5
20260903220504 61 246 2.0 8.0 0.00 0.34 0.19 76 1008.5
20260903215504 60 145 3.0 13.0 0.00 0.34 0.19 75 1008.5
20260903215004 60 199 2.0 13.0 0.00 0.34 0.19 76 1008.5
20260903214505 60 145 6.0 13.0 0.00 0.34 0.19 77 1008.5
20260903214004 60 203 3.0 7.0 0.00 0.34 0.19 77 1008.5
20260903213504 60 233 4.0 7.0 0.00 0.34 0.19 77 1008.5
20260903212504 60 207 5.0 16.0 0.00 0.34 0.19 78 1009.5
20260903212004 59 162 7.0 16.0 0.00 0.34 0.19 78 1009.5
20260903211504 59 179 9.0 16.0 0.00 0.34 0.19 77 1009.5
20260903211003 59 194 6.0 16.0 0.00 0.34 0.19 77 1008.5
20260903210504 59 140 7.0 15.0 0.00 0.34 0.19 77 1008.5
20260903210004 59 136 6.0 20.0 0.00 0.34 0.19 79 1008.5
20260903205504 59 161 7.0 20.0 0.00 0.34 0.19 80 1008.5
20260903205004 60 98 7.0 21.0 0.00 0.34 0.19 81 1008.5
20260903204504 59 168 13.0 21.0 0.00 0.34 0.19 81 1008.5
20260903203504 60 195 6.0 14.0 0.00 0.34 0.19 83 1008.5
20260903203004 60 139 6.0 15.0 0.00 0.34 0.19 84 1008.5
20260903202503 60 154 6.0 15.0 0.00 0.34 0.19 84 1009.5
20260903202003 59 156 5.0 15.0 0.00 0.38 0.19 85 1009.5
20260903201507 59 171 6.0 15.0 0.00 0.38 0.19 84 1009.5
20260903201007 59 145 7.0 20.0 0.00 0.38 0.19 85 1009.5
20260903195507 58 208 9.0 17.0 0.00 0.43 0.19 87 1008.5
20260903195007 58 161 8.0 31.0 0.00 0.43 0.19 87 1008.5
20260903194507 58 151 10.0 31.0 0.00 0.48 0.19 88 1008.5
20260903194007 59 173 8.0 25.0 0.00 0.48 0.19 89 1008.5
20260903193006 58 141 11.0 25.0 0.05 0.53 0.19 91 1008.5
20260903192506 58 182 8.0 20.0 0.10 0.53 0.19 92 1009.5
20260903192007 58 171 10.0 20.0 0.10 0.53 0.19 93 1009.5
20260903191507 57 177 10.0 23.0 0.10 0.53 0.19 93 1009.5
20260903191007 57 148 9.0 23.0 0.10 0.58 0.19 93 1009.5
20260903190507 57 175 7.0 16.0 0.10 0.58 0.19 93 1009.5
20260903190006 57 139 5.0 20.0 0.10 0.58 0.19 93 1009.5
20260903185507 57 159 7.0 20.0 0.10 0.58 0.19 92 1009.5
20260903185006 57 171 3.0 9.0 0.10 0.58 0.19 92 1009.5
20260903184507 57 186 3.0 8.0 0.10 0.58 0.19 90 1009.5
20260903184007 57 215 2.0 10.0 0.10 0.58 0.19 89 1009.5
20260903183507 57 192 4.0 18.0 0.10 0.58 0.19 86 1009.5
20260903183007 58 214 6.0 18.0 0.05 0.53 0.14 83 1009.5
20260903182507 60 181 9.0 18.0 0.00 0.48 0.09 82 1008.5
20260903182007 60 172 5.0 12.0 0.00 0.53 0.09 84 1008.5
20260903180507 60 161 6.0 15.0 0.00 0.53 0.09 89 1008.5
20260903175507 60 144 6.0 13.0 0.00 0.53 0.09 91 1008.5
20260903175007 60 196 5.0 13.0 0.00 0.53 0.09 91 1008.5
20260903174507 59 146 3.0 13.0 0.00 0.53 0.09 92 1008.5
20260903174006 60 88 5.0 13.0 0.00 0.53 0.09 93 1008.5
20260903173006 58 113 3.0 13.0 0.00 0.53 0.09 94 1008.5
20260903172507 58 98 4.0 13.0 0.00 0.53 0.09 94 1008.5
20260903172006 57 100 2.0 8.0 0.00 0.53 0.09 94 1008.5
20260903171507 57 109 5.0 8.0 0.00 0.53 0.09 95 1008.5
20260903171007 57 113 1.0 7.0 0.00 0.53 0.09 95 1009.5
20260903170506 56 144 1.0 7.0 0.00 0.53 0.09 95 1009.5
20260903170006 56 124 2.0 6.0 0.00 0.53 0.09 95 1009.5
20260903165506 56 138 2.0 7.0 0.00 0.53 0.09 95 1009.5
20260903165006 56 85 0.0 7.0 0.00 0.53 0.09 95 1009.5
20260903164006 56 128 2.0 7.0 0.00 0.53 0.09 95 1008.5
20260903163507 55 161 2.0 7.0 0.00 0.53 0.09 96 1008.5
20260903162507 55 122 2.0 5.0 0.00 0.53 0.09 96 1009.5
20260903162007 55 115 0.0 3.0 0.00 0.53 0.09 96 1009.5
20260903161506 55 85 0.0 3.0 0.00 0.53 0.09 95 1009.5
20260903161006 55 91 0.0 0.0 0.00 0.53 0.09 95 1009.5
20260903160006 54 192 0.0 5.0 0.00 0.53 0.09 95 1009.5
20260903155506 54 153 0.0 13.0 0.00 0.53 0.09 95 1009.5
20260903155006 54 148 4.0 13.0 0.00 0.53 0.09 95 1009.5
20260903154506 54 133 3.0 13.0 0.00 0.53 0.09 95 1009.5
20260903154006 54 135 7.0 13.0 0.00 0.53 0.09 95 1009.5
20260903152506 54 127 9.0 15.0 0.00 0.53 0.09 95 1009.5
20260903152006 54 157 7.0 17.0 0.05 0.53 0.09 95 1009.5
20260903151506 54 142 6.0 17.0 0.05 0.53 0.09 95 1009.5
20260903151006 54 129 7.0 21.0 0.05 0.53 0.09 95 1008.5
20260903150506 54 149 8.0 21.0 0.05 0.53 0.09 95 1008.5
20260903150007 54 146 9.0 15.0 0.05 0.53 0.09 95 1008.5
20260903145509 54 153 9.0 16.0 0.05 0.53 0.09 95 1008.5
20260903145006 54 171 8.0 16.0 0.05 0.53 0.09 95 1008.5
20260903144006 54 138 6.0 15.0 0.05 0.53 0.09 94 1008.5
20260903143506 54 168 7.0 18.0 0.05 0.53 0.09 93 1008.5
20260903143006 54 146 9.0 18.0 0.05 0.53 0.09 93 1008.5
20260903142506 54 152 9.0 17.0 0.05 0.53 0.09 93 1008.5
20260903142007 54 137 7.0 20.0 0.00 0.48 0.05 92 1008.5
20260903141507 54 152 11.0 20.0 0.00 0.48 0.05 92 1008.5
20260903140506 54 134 7.0 13.0 0.00 0.48 0.05 92 1007.5
20260903140006 54 137 9.0 14.0 0.00 0.48 0.05 92 1007.5
20260903135506 54 143 8.0 14.0 0.00 0.48 0.05 92 1008.5
20260903135006 54 148 7.0 13.0 0.00 0.48 0.05 92 1008.5
20260903134506 54 148 5.0 13.0 0.00 0.48 0.05 91 1008.5
20260903134006 54 148 6.0 15.0 0.00 0.48 0.05 91 1008.5
20260903133506 54 135 4.0 15.0 0.00 0.48 0.05 91 1008.5
20260903133006 54 140 6.0 15.0 0.00 0.48 0.05 91 1008.5
20260903132506 54 118 7.0 13.0 0.00 0.48 0.05 91 1008.5
20260903132006 55 135 7.0 15.0 0.00 0.48 0.05 91 1008.5
20260903131505 55 148 9.0 15.0 0.00 0.48 0.05 91 1008.5
20260903131006 55 140 8.0 17.0 0.00 0.48 0.05 91 1008.5
20260903130506 55 135 11.0 17.0 0.00 0.48 0.05 91 1008.5
20260903125506 55 137 9.0 23.0 0.00 0.48 0.05 91 1007.5
20260903125006 55 168 12.0 23.0 0.00 0.48 0.05 92 1007.5
20260903124505 55 138 11.0 18.0 0.00 0.48 0.05 92 1007.5
20260903124006 54 125 9.0 18.0 0.00 0.48 0.05 92 1008.5
20260903123506 54 152 11.0 18.0 0.00 0.48 0.05 92 1008.5
20260903123006 54 141 9.0 17.0 0.00 0.48 0.05 92 1008.5
20260903122507 54 148 9.0 17.0 0.00 0.48 0.05 92 1008.5
20260903122006 54 140 11.0 17.0 0.00 0.48 0.05 92 1008.5
20260903121506 54 196 8.0 20.0 0.00 0.48 0.05 93 1008.5
20260903121005 54 151 12.0 20.0 0.00 0.48 0.05 93 1008.5
20260903120506 54 132 11.0 15.0 0.00 0.48 0.05 93 1008.5
20260903120006 54 160 9.0 14.0 0.00 0.48 0.05 93 1008.5
20260903115506 54 148 8.0 15.0 0.00 0.48 0.05 94 1007.5
20260903115005 54 186 8.0 15.0 0.00 0.48 0.05 94 1007.5
20260903114005 54 147 8.0 15.0 0.00 0.48 0.05 94 1008.5
20260903113505 54 151 9.0 15.0 0.00 0.48 0.05 94 1008.5
20260903112506 54 136 11.0 17.0 0.00 0.48 0.05 95 1008.5
20260903112006 54 134 9.0 17.0 0.00 0.48 0.05 95 1008.5
20260903111505 54 140 9.0 17.0 0.00 0.48 0.05 95 1008.5
20260903111005 54 156 6.0 20.0 0.00 0.48 0.05 95 1008.5
20260903110505 54 153 7.0 20.0 0.00 0.48 0.05 95 1008.5
20260903110005 54 147 9.0 20.0 0.00 0.48 0.05 95 1008.5
20260903105506 54 140 9.0 16.0 0.00 0.48 0.05 95 1008.5
20260903105005 54 129 7.0 16.0 0.00 0.48 0.05 95 1008.5
20260903104506 54 166 6.0 21.0 0.00 0.48 0.05 95 1008.5
20260903104006 54 135 11.0 21.0 0.00 0.48 0.05 95 1008.5
20260903103506 54 146 5.0 18.0 0.00 0.48 0.05 95 1008.5
20260903102506 54 131 10.0 21.0 0.00 0.48 0.05 96 1008.5
20260903101505 54 154 9.0 21.0 0.00 0.48 0.05 96 1008.5
20260903100006 54 122 6.0 15.0 0.00 0.48 0.05 97 1008.5
20260903095006 54 147 8.0 16.0 0.00 0.48 0.05 97 1008.5
20260903094506 54 151 7.0 17.0 0.00 0.48 0.05 97 1008.5
20260903094006 54 135 8.0 17.0 0.00 0.48 0.05 97 1008.5
20260903093006 54 144 7.0 16.0 0.00 0.48 0.05 98 1008.5
20260903092505 54 145 7.0 16.0 0.00 0.48 0.05 98 1008.5
20260903092006 54 145 3.0 13.0 0.00 0.48 0.05 98 1008.5
20260903091505 54 125 6.0 13.0 0.00 0.48 0.05 98 1008.5
20260903091006 54 150 6.0 20.0 0.00 0.48 0.05 98 1008.5
20260903090506 54 161 8.0 20.0 0.00 0.48 0.05 98 1008.5
20260903090005 54 148 4.0 10.0 0.00 0.48 0.05 98 1008.5
20260903085505 54 132 3.0 9.0 0.00 0.48 0.05 98 1008.5
20260903085005 54 145 5.0 10.0 0.00 0.48 0.05 97 1008.5
20260903084506 54 142 3.0 10.0 0.05 0.48 0.05 98 1008.5
20260903084005 55 146 3.0 10.0 0.05 0.48 0.05 98 1008.5
20260903083505 54 149 3.0 22.0 0.05 0.48 0.05 98 1008.5
20260903083005 55 146 7.0 22.0 0.05 0.48 0.05 98 1008.5
20260903082505 54 163 6.0 15.0 0.05 0.48 0.05 98 1008.5
20260903082007 54 146 9.0 15.0 0.05 0.48 0.05 98 1008.5
20260903081005 54 143 5.0 15.0 0.05 0.48 0.05 98 1008.5
20260903080505 55 138 9.0 15.0 0.05 0.48 0.05 98 1008.5
20260903080005 55 154 4.0 13.0 0.05 0.48 0.05 98 1008.5
20260903075505 55 132 6.0 15.0 0.05 0.48 0.05 98 1009.5
20260903075005 55 166 5.0 15.0 0.05 0.48 0.05 98 1009.5
20260903074505 55 145 7.0 15.0 0.00 0.44 0.00 98 1009.5
20260903074006 55 202 7.0 15.0 0.00 0.44 0.00 98 1008.5
20260903073505 55 136 6.0 14.0 0.00 0.44 0.00 98 1008.5
20260903073005 55 159 10.0 21.0 0.00 0.44 0.00 98 1008.5
20260903071005 55 134 10.0 24.0 0.00 0.44 0.00 98 1008.5
20260903070506 55 137 9.0 22.0 0.00 0.44 0.00 98 1008.5
20260903070006 55 154 9.0 23.0 0.00 0.44 0.00 98 1008.5
20260903065505 55 152 9.0 23.0 0.00 0.44 0.44 98 1008.5
20260903065005 55 140 7.0 21.0 0.00 0.44 0.44 98 1008.5
20260903064505 55 141 9.0 26.0 0.00 0.44 0.44 97 1008.5
20260903064005 55 169 10.0 26.0 0.00 0.44 0.44 97 1008.5
20260903063505 55 165 10.0 18.0 0.00 0.44 0.44 97 1008.5
20260903063005 55 199 7.0 15.0 0.00 0.44 0.44 96 1008.5
20260903062505 55 203 7.0 13.0 0.00 0.44 0.44 96 1008.5
20260903062005 55 194 6.0 15.0 0.00 0.44 0.44 96 1008.5
20260903061505 55 183 7.0 21.0 0.00 0.44 0.44 96 1008.5
20260903061005 56 163 9.0 21.0 0.00 0.44 0.44 96 1008.5
20260903060505 55 169 7.0 18.0 0.00 0.44 0.44 96 1008.5
20260903060005 55 197 6.0 31.0 0.00 0.44 0.44 97 1008.5
20260903055504 55 178 10.0 31.0 0.00 0.44 0.44 97 1008.5
20260903055005 55 166 8.0 16.0 0.00 0.44 0.44 97 1008.5
20260903054505 55 190 7.0 13.0 0.00 0.44 0.44 97 1008.5